TimeCST,TemperatureF,Dew PointF,Humidity,Sea Level PressureIn,VisibilityMPH,Wind Direction,Wind SpeedMPH,Gust SpeedMPH,PrecipitationIn,Events,Conditions,WindDirDegrees,DateUTC
12:02 AM,57.2,53.6,88,29.90,10.0,North,9.2,-,0.01,Rain,Light Rain,360,2013-02-25 06:02:00
12:12 AM,57.2,53.6,88,29.92,10.0,North,5.8,-,0.02,Rain-Thunderstorm,Light Thunderstorms and Rain,10,2013-02-25 06:12:00
12:48 AM,55.4,53.6,94,29.91,5.0,NNE,8.1,-,0.16,Rain-Thunderstorm,Light Thunderstorms and Rain,30,2013-02-25 06:48:00
12:53 AM,55.0,53.1,93,29.90,7.0,NE,9.2,-,0.16,Rain,Light Rain,50,2013-02-25 06:53:00
1:05 AM,55.4,53.6,94,29.90,10.0,NE,10.4,-,0.01,Rain,Light Rain,50,2013-02-25 07:05:00
1:12 AM,55.4,51.8,88,29.88,10.0,NE,13.8,-,0.03,Rain-Thunderstorm,Thunderstorms and Rain,50,2013-02-25 07:12:00
1:31 AM,55.4,51.8,88,29.89,10.0,East,5.8,-,0.03,Rain-Thunderstorm,Light Thunderstorms and Rain,90,2013-02-25 07:31:00
1:47 AM,53.6,51.8,94,29.89,2.5,ENE,11.5,-,0.18,Rain-Thunderstorm,Heavy Thunderstorms and Rain,60,2013-02-25 07:47:00
1:53 AM,54.0,52.0,93,29.88,2.0,East,10.4,-,0.31,Rain-Thunderstorm,Heavy Thunderstorms and Rain,80,2013-02-25 07:53:00
2:00 AM,53.6,51.8,94,29.89,1.8,East,9.2,-,0.15,Rain-Thunderstorm,Heavy Thunderstorms and Rain,80,2013-02-25 08:00:00
2:33 AM,53.6,51.8,94,29.86,2.5,ENE,11.5,-,0.97,Rain,Heavy Rain,70,2013-02-25 08:33:00
2:36 AM,53.6,51.8,94,29.86,3.0,ENE,9.2,-,0.98,Rain,Heavy Rain,60,2013-02-25 08:36:00
2:53 AM,54.0,53.1,97,29.85,5.0,ENE,12.7,-,1.04,Rain,Heavy Rain,60,2013-02-25 08:53:00
3:16 AM,53.6,53.6,100,29.82,5.0,ENE,11.5,-,0.09,Rain,Heavy Rain,70,2013-02-25 09:16:00
3:29 AM,55.4,53.6,94,29.84,6.0,Variable,3.5,-,0.13,Rain,Rain,0,2013-02-25 09:29:00
3:38 AM,53.6,53.6,100,29.87,1.8,NW,8.1,17.3,0.30,Rain,Heavy Rain,320,2013-02-25 09:38:00
3:47 AM,53.6,53.6,100,29.85,1.2,NE,8.1,-,0.44,Rain-Thunderstorm,Heavy Rain,50,2013-02-25 09:47:00
3:48 AM,53.6,53.6,100,29.84,1.5,ENE,8.1,-,0.44,Rain-Thunderstorm,Heavy Rain,60,2013-02-25 09:48:00
3:53 AM,55.0,54.0,96,29.83,3.0,East,10.4,-,0.47,Rain-Thunderstorm,Heavy Rain,90,2013-02-25 09:53:00
4:01 AM,55.4,53.6,94,29.83,4.0,East,4.6,-,0.03,Rain-Thunderstorm,Heavy Thunderstorms and Rain,90,2013-02-25 10:01:00
4:34 AM,55.4,55.4,100,29.82,9.0,ENE,8.1,-,0.11,Rain,Light Rain,60,2013-02-25 10:34:00
4:53 AM,55.9,55.0,97,29.84,10.0,ESE,5.8,-,0.11,,Overcast,110,2013-02-25 10:53:00
5:33 AM,55.4,55.4,100,29.83,10.0,East,6.9,-,0.00,,Overcast,80,2013-02-25 11:33:00
5:53 AM,57.0,55.9,96,29.83,10.0,East,6.9,-,0.00,,Overcast,80,2013-02-25 11:53:00
6:10 AM,57.2,55.4,94,29.85,10.0,East,4.6,-,N/A,Thunderstorm,Overcast,90,2013-02-25 12:10:00
6:39 AM,59.0,57.2,94,29.87,2.0,Variable,5.8,-,0.18,Rain-Thunderstorm,Heavy Rain,0,2013-02-25 12:39:00
6:47 AM,59.0,57.2,94,29.86,4.0,East,9.2,-,0.20,Rain,Rain,80,2013-02-25 12:47:00
6:53 AM,59.0,57.9,96,29.86,7.0,East,9.2,-,0.21,Rain,Rain,80,2013-02-25 12:53:00
7:11 AM,59.0,57.2,94,29.85,10.0,East,11.5,-,0.02,Rain-Thunderstorm,Light Rain,80,2013-02-25 13:11:00
7:33 AM,60.8,57.2,88,29.85,6.0,Variable,6.9,20.7,0.08,Rain,Light Rain,0,2013-02-25 13:33:00
7:40 AM,60.8,57.2,88,29.86,10.0,Variable,4.6,-,0.08,Rain,Light Rain,0,2013-02-25 13:40:00
7:47 AM,60.8,57.2,88,29.86,10.0,North,10.4,-,0.08,Rain-Thunderstorm,Light Rain,360,2013-02-25 13:47:00
7:53 AM,59.0,57.9,96,29.86,10.0,NNE,10.4,-,0.09,Rain-Thunderstorm,Light Rain,30,2013-02-25 13:53:00
8:07 AM,59.0,57.2,94,29.86,5.0,NNE,12.7,19.6,0.04,Rain,Rain,20,2013-02-25 14:07:00
8:15 AM,57.2,55.4,94,29.84,3.0,NE,18.4,24.2,0.11,Rain-Thunderstorm,Heavy Rain,40,2013-02-25 14:15:00
8:17 AM,57.2,55.4,94,29.85,2.5,NE,16.1,-,0.12,Rain-Thunderstorm,Heavy Rain,40,2013-02-25 14:17:00
8:32 AM,57.2,55.4,94,29.87,1.5,NE,15.0,26.5,0.26,Rain-Thunderstorm,Heavy Thunderstorms and Rain,50,2013-02-25 14:32:00
8:48 AM,55.4,55.4,100,29.89,0.8,NNE,8.1,-,0.56,Rain-Thunderstorm,Heavy Rain,30,2013-02-25 14:48:00
8:53 AM,55.9,55.9,100,29.89,1.0,North,9.2,-,0.62,Rain-Thunderstorm,Heavy Rain,10,2013-02-25 14:53:00
9:00 AM,55.4,55.4,100,29.90,1.5,NE,12.7,-,0.07,Rain,Heavy Rain,50,2013-02-25 15:00:00
9:13 AM,55.4,55.4,100,29.90,2.5,NNE,8.1,-,0.15,Rain,Heavy Rain,20,2013-02-25 15:13:00
9:28 AM,55.4,55.4,100,29.91,3.0,North,10.4,-,0.23,Rain,Heavy Rain,10,2013-02-25 15:28:00
9:37 AM,55.4,55.4,100,29.90,2.5,NNE,12.7,-,0.28,Rain,Heavy Rain,20,2013-02-25 15:37:00
9:50 AM,57.2,55.4,94,29.91,3.0,ENE,8.1,-,0.34,Rain,Heavy Rain,70,2013-02-25 15:50:00
9:53 AM,57.0,55.9,96,29.90,3.0,ENE,9.2,-,0.36,Rain,Heavy Rain,60,2013-02-25 15:53:00
10:51 AM,57.2,55.4,94,29.89,4.0,ENE,10.4,-,0.27,Rain,Rain,70,2013-02-25 16:51:00
10:53 AM,57.9,55.9,93,29.89,4.0,East,11.5,-,0.27,Rain,Rain,80,2013-02-25 16:53:00
11:53 AM,57.9,57.0,97,29.84,6.0,East,13.8,23.0,0.13,Rain,Rain,80,2013-02-25 17:53:00
12:22 PM,57.2,57.2,100,29.81,6.0,East,17.3,24.2,0.05,Rain,Rain,90,2013-02-25 18:22:00
12:53 PM,59.0,57.0,93,29.81,4.0,East,12.7,21.9,0.11,Rain,Heavy Rain,90,2013-02-25 18:53:00
1:53 PM,62.1,57.9,86,29.77,10.0,ESE,11.5,28.8,0.02,,Scattered Clouds,110,2013-02-25 19:53:00
2:53 PM,62.1,57.9,86,29.75,10.0,ESE,12.7,21.9,N/A,,Scattered Clouds,110,2013-02-25 20:53:00
3:53 PM,62.1,57.9,86,29.73,10.0,East,10.4,18.4,N/A,,Partly Cloudy,90,2013-02-25 21:53:00
4:19 PM,62.6,57.2,82,29.74,10.0,Variable,5.8,-,N/A,,Mostly Cloudy,0,2013-02-25 22:19:00
4:53 PM,62.1,57.9,86,29.75,10.0,East,4.6,-,N/A,,Overcast,100,2013-02-25 22:53:00
5:53 PM,61.0,59.0,93,29.74,10.0,ESE,4.6,-,0.03,Rain,Light Rain,110,2013-02-25 23:53:00
6:34 PM,60.8,59.0,94,29.75,10.0,East,6.9,-,0.02,Rain,Light Rain,100,2013-02-26 00:34:00
6:53 PM,60.1,57.9,93,29.75,10.0,East,6.9,-,0.04,Rain,Rain,90,2013-02-26 00:53:00
7:53 PM,59.0,57.9,96,29.71,10.0,East,9.2,-,0.03,,Overcast,80,2013-02-26 01:53:00
8:53 PM,59.0,57.9,96,29.73,10.0,East,8.1,-,0.04,Rain,Light Rain,90,2013-02-26 02:53:00
9:53 PM,60.1,59.0,96,29.71,5.0,East,9.2,-,0.07,Rain,Heavy Rain,100,2013-02-26 03:53:00
10:38 PM,60.8,59.0,94,29.71,3.0,SE,6.9,-,0.28,Rain,Heavy Rain,140,2013-02-26 04:38:00
10:49 PM,60.8,59.0,94,29.69,3.0,East,11.5,19.6,0.35,Rain,Heavy Rain,100,2013-02-26 04:49:00
10:53 PM,60.1,59.0,96,29.69,4.0,ESE,11.5,19.6,0.37,Rain,Heavy Rain,110,2013-02-26 04:53:00
11:53 PM,61.0,60.1,97,29.62,8.0,East,13.8,25.3,0.08,Rain,Light Rain,100,2013-02-26 05:53:00